Torna al catalogo

CZ-6A DEB

AttivoPO
NORAD 61334·DEBRIS·🇨🇳 China

Lanciato Aug 6, 2024 da Taiyuan Satellite Launch Center

Loading…

Prossimi Passaggi (prossime 24 ore)

TLE

AggiornatoSource: Space-Track

Epoca: Sep 13, 2026, 23:35 UTC

1 61334U 24140UX  26256.98324742  .00000738  00000-0  33491-3 0  9999
2 61334  89.0021 265.3099 0047279 269.6171  89.9602 14.20304746105083

Traccia CZ-6A DEB in tempo reale con AllMySat

Download on the App Store